Regional Weather Roundup
Issued by NWS

Home | Current Version | Previous Version | Graphics & Text | Print | Product List | Glossary On
Versions: 1 2 3 4 5 6 7 8 9 10 11 12 13 14 15 16 17 18 19 20 21 22 23 24 25 26 27
000
ASUS45 KPSR 291210
RWRAZ

ARIZONA HOURLY REGIONAL WEATHER ROUNDUP
NATIONAL WEATHER SERVICE PHOENIX AZ
500 AM MST SUN MAY 29 2016

NOTE: FAIR INDICATES FEW OR NO CLOUDS BELOW 12,000 FEET WITH NO
SIGNIFICANT WEATHER AND/OR OBSTRUCTIONS TO VISIBILITY.

AZZ001>003-036-291300-
NORTHWEST ARIZONA

CITY           SKY/WX    TMP DP  RH WIND       PRES   REMARKS
KINGMAN        CLEAR     58  28  32 MISG      29.98R
6HR MIN TEMP:  57; 6HR MAX TEMP:  71;

$$

AZZ004>008-015-016-018-291300-
NORTH CENTRAL ARIZONA

CITY           SKY/WX    TMP DP  RH WIND       PRES   REMARKS
GRAND CANYON   CLEAR     31  22  69 CALM      30.16S
6HR MIN TEMP:  30; 6HR MAX TEMP:  44;

WILLIAMS       CLEAR     37  21  52 S9        30.23S WCI  31
PRESCOTT       CLEAR     50  28  42 S6        30.09R
6HR MIN TEMP:  50; 6HR MAX TEMP:  60;

FLAGSTAFF      CLEAR     32  20  61 CALM      30.18R
6HR MIN TEMP:  31; 6HR MAX TEMP:  43;

PAYSON         CLEAR     52  23  32 CALM      30.13R
$$

AZZ009>014-017-291300-
NORTHEAST ARIZONA

CITY           SKY/WX    TMP DP  RH WIND       PRES   REMARKS
WINSLOW        CLEAR     46  23  40 E6        30.10R
6HR MIN TEMP:  44; 6HR MAX TEMP:  62;

SAINT JOHNS    CLEAR     45  22  40 SW5       30.14R
6HR MIN TEMP:  44; 6HR MAX TEMP:  57;

WINDOW ROCK    CLEAR     38  24  57 CALM      30.19R
6HR MIN TEMP:  35; 6HR MAX TEMP:  57;

SHOW LOW       CLEAR     43  18  36 CALM      30.19R
$$

AZZ023-291300-
GREATER PHOENIX AREA

CITY           SKY/WX    TMP DP  RH WIND       PRES   REMARKS
PHOENIX        CLEAR     72  37  28 CALM      29.89R
6HR MIN TEMP:  72; 6HR MAX TEMP:  83;

BUCKEYE        CLEAR     63  32  31 CALM      29.91R
LUKE AFB       CLEAR     70  37  29 CALM      29.89R
6HR MIN TEMP:  69; 6HR MAX TEMP:  82;

DEER VALLEY    CLEAR     69  31  24 CALM      29.91R
6HR MIN TEMP:  67; 6HR MAX TEMP:  81;

SCOTTSDALE     CLEAR     69  39  33 W3        29.92R
6HR MIN TEMP:  69; 6HR MAX TEMP:  82;

MESA-GATEWAY   CLEAR     64  37  36 E6        29.92R
$$

AZZ027-028-291300-
SOUTHWEST MARICOPA COUNTY AND PINAL COUNTY

CITY           SKY/WX    TMP DP  RH WIND       PRES   REMARKS
CASA GRANDE    CLEAR     63  28  27 CALM      29.93R
6HR MIN TEMP:  61; 6HR MAX TEMP:  79;

GILA BEND      FAIR      65  30  26 S9        29.87S
6HR MIN TEMP:  64; 6HR MAX TEMP:  79;

$$

AZZ503-504-507>509-291300-
SOUTHEAST ARIZONA

CITY           SKY/WX    TMP DP  RH WIND       PRES   REMARKS
TUCSON         CLEAR     62  22  21 SE9       30.01R
6HR MIN TEMP:  61; 6HR MAX TEMP:  76;

DAVIS-MONTHAN  CLEAR     59  14  17 SE7       29.99R
6HR MIN TEMP:  59; 6HR MAX TEMP:  73;

NOGALES        CLEAR     52  24  33 NE5       30.05R
6HR MIN TEMP:  51; 6HR MAX TEMP:  68;

SIERRA VISTA   CLEAR     56  12  17 CALM      30.10R
6HR MIN TEMP:  55; 6HR MAX TEMP:  68;

DOUGLAS        CLEAR     55  10  16 E6        30.08R
6HR MIN TEMP:  47; 6HR MAX TEMP:  62;

SAFFORD        CLEAR     55  12  18 E3        30.01R
6HR MIN TEMP:  55; 6HR MAX TEMP:  78;

$$

AZZ020-021-025-026-031-291300-
SOUTHWEST ARIZONA

CITY           SKY/WX    TMP DP  RH WIND       PRES   REMARKS
YUMA           CLEAR     68  41  37 N3        29.82R
6HR MIN TEMP:  68; 6HR MAX TEMP:  77;

$$

CAZ031-033-041-043-047-048-061-291300-
SOUTHERN CALIFORNIA

CITY           SKY/WX    TMP DP  RH WIND       PRES   REMARKS
DOWNTOWN L.A.  CLOUDY    61  54  77 CALM      29.96R
6HR MIN TEMP:  61; 6HR MAX TEMP:  62;

L.A. AIRPORT   CLOUDY    60  54  80 W6        29.97R
6HR MIN TEMP:  59; 6HR MAX TEMP:  60;

SAN DIEGO      DRIZZLE   60  56  86 NW3       29.98S
6HR MIN TEMP:  60; 6HR MAX TEMP:  63; 6HR PCP: TRACE;

BURBANK        CLOUDY    58  54  86 CALM      29.96R
6HR MIN TEMP:  58; 6HR MAX TEMP:  58;

ONTARIO        CLOUDY    60  53  77 W6        29.95S
6HR MIN TEMP:  59; 6HR MAX TEMP:  61;

RIVERSIDE      CLOUDY    60  53  77 W5        29.96R
6HR MIN TEMP:  60; 6HR MAX TEMP:  61;

PALM SPRINGS   CLEAR     67  53  61 SE5       29.86R
6HR MIN TEMP:  67; 6HR MAX TEMP:  76;

EL CENTRO NAS  CLEAR     69  49  48 SW5       29.83R
6HR MIN TEMP:  65; 6HR MAX TEMP:  77;

IMPERIAL       CLEAR     71  44  37 E3        29.81R
6HR MIN TEMP:  68; 6HR MAX TEMP:  77;

BLYTHE         CLEAR     70  39  32 S7        29.84R
6HR MIN TEMP:  68; 6HR MAX TEMP:  80;

NEEDLES        CLEAR     75  31  19 SW5       29.84R
6HR MIN TEMP:  74; 6HR MAX TEMP:  85;

$$

NVZ020-UTZ003-291300-
SOUTHERN NEVADA-UTAH

CITY           SKY/WX    TMP DP  RH WIND       PRES   REMARKS
LAS VEGAS      PTCLDY    73  27  18 SW3       29.84R
6HR MIN TEMP:  72; 6HR MAX TEMP:  80;

SALT LAKE CITY MOCLDY    57  41  55 E8        30.07R
6HR MIN TEMP:  57; 6HR MAX TEMP:  63;

$$

NMZ009-TXZ055-291300-
NEW MEXICO-WEST TEXAS

CITY           SKY/WX    TMP DP  RH WIND       PRES   REMARKS
ALBUQUERQUE    PTCLDY    56  25  30 N3        30.13R
6HR MIN TEMP:  56; 6HR MAX TEMP:  69;

EL PASO        MOCLDY    76   4   6 NW7       30.05S
6HR MIN TEMP:  66; 6HR MAX TEMP:  81;

$$


........................KEY........................
SKY/WX - SKY CONDITION/WEATHER
TMP    - TEMPERATURE IN FAHRENHEIT
DP     - DEW POINT IN FAHRENHEIT
RH     - RELATIVE HUMIDITY IN PERCENT
WIND   - DIRECTION AND SPEED IN MILES PER HOUR (MPH)
VRB    - VARIABLE WIND DIRECTION
PRES   - MEAN SEA LEVEL PRESSURE IN INCHES OF MERCURY
         F - FALLING PRESSURE   R - RISING PRESSURE
         S - STEADY PRESSURE
VSB    - VISIBILITY IN MILES
HX     - HEAT INDEX IN FAHRENHEIT
WCI    - WIND CHILL INDEX IN FAHRENHEIT
TC     - TEMPERATURE IN CELSIUS WHICH IS ALSO KNOWN AS
         TEMPERATURE IN CENTIGRADE
AFB    - AIR FORCE BASE
         LUKE AFB IS LUKE AIR FORCE BASE
         DAVIS-MONTHAN IS DAVIS-MONTHAN AIR FORCE BASE
NAS    - NAVAL AIR STATION
         EL CENTRO NAS IS EL CENTRO NAVAL AIR STATION
N/A    - NOT AVAILABLE





USA.gov is the U.S. government's official web portal to all federal, state and local government web resources and services.